TimeEST,TemperatureF,Dew PointF,Humidity,Sea Level PressureIn,VisibilityMPH,Wind Direction,Wind SpeedMPH,Gust SpeedMPH,PrecipitationIn,Events,Conditions,WindDirDegrees,DateUTC
12:51 AM,23.0,16.0,74,30.39,10.0,Calm,Calm,-,N/A,,Clear,0,2013-01-19 05:51:00
1:51 AM,21.2,15.8,80,30.29,10.0,Calm,Calm,-,N/A,,Clear,0,2013-01-19 06:51:00
2:51 AM,21.0,15.1,78,30.38,10.0,Calm,Calm,-,N/A,,Clear,0,2013-01-19 07:51:00
3:51 AM,19.9,16.0,85,30.36,10.0,Calm,Calm,-,N/A,,Clear,0,2013-01-19 08:51:00
4:51 AM,21.9,16.0,78,30.35,10.0,Variable,3.5,-,N/A,,Clear,0,2013-01-19 09:51:00
5:51 AM,24.1,17.1,75,30.35,10.0,Variable,4.6,-,N/A,,Clear,0,2013-01-19 10:51:00
6:51 AM,25.0,17.1,72,30.34,10.0,Calm,Calm,-,N/A,,Clear,0,2013-01-19 11:51:00
7:51 AM,23.0,16.0,74,30.35,10.0,Calm,Calm,-,N/A,,Clear,0,2013-01-19 12:51:00
8:51 AM,41.0,15.1,35,30.33,10.0,SSW,6.9,-,N/A,,Clear,210,2013-01-19 13:51:00
9:51 AM,45.0,12.9,27,30.35,10.0,SW,9.2,24.2,N/A,,Clear,230,2013-01-19 14:51:00
10:51 AM,46.9,12.9,25,30.33,10.0,WSW,13.8,18.4,N/A,,Clear,240,2013-01-19 15:51:00
11:51 AM,48.9,15.1,26,30.28,10.0,SW,9.2,-,N/A,,Clear,230,2013-01-19 16:51:00
12:51 PM,50.0,12.0,22,30.23,10.0,WSW,11.5,27.6,N/A,,Clear,240,2013-01-19 17:51:00
1:51 PM,52.0,12.9,21,30.18,10.0,SW,12.7,-,N/A,,Clear,220,2013-01-19 18:51:00
2:51 PM,52.0,12.0,20,30.15,10.0,SW,11.5,20.7,N/A,,Clear,220,2013-01-19 19:51:00
3:51 PM,52.0,10.9,19,30.12,10.0,SSW,12.7,19.6,N/A,,Clear,210,2013-01-19 20:51:00
4:51 PM,50.0,10.9,21,30.10,10.0,SSW,6.9,-,N/A,,Clear,210,2013-01-19 21:51:00
5:51 PM,48.0,10.9,22,30.08,10.0,South,5.8,-,N/A,,Clear,170,2013-01-19 22:51:00
6:51 PM,37.0,15.1,41,30.08,10.0,SE,4.6,-,N/A,,Clear,140,2013-01-19 23:51:00
7:51 PM,37.9,15.1,39,30.09,10.0,SSE,5.8,-,N/A,,Clear,160,2013-01-20 00:51:00
8:51 PM,42.1,14.0,32,30.04,10.0,South,5.8,-,N/A,,Clear,170,2013-01-20 01:51:00
9:51 PM,43.0,12.0,28,30.01,10.0,SSE,6.9,-,N/A,,Clear,150,2013-01-20 02:51:00
10:51 PM,46.9,7.0,20,29.99,10.0,South,9.2,-,N/A,,Clear,190,2013-01-20 03:51:00
11:51 PM,48.0,8.1,20,29.97,10.0,SSW,13.8,24.2,N/A,,Clear,210,2013-01-20 04:51:00